Wetterdaten: Woche 25.11.13 - 01.12.13 (KW48)
Datum Zeit Temperatur Luftfeuchte Luftdruck Niederschlag Windrichtung Sonnenschein Solar Wind
25.11.2013 00:00 1,7 C 95 % 1021,4 hPa 0,0 l/m N-NO 0,00 h 0 W/m 10,2 km/h (2 Bft)
25.11.2013 01:00 1,0 C 93 % 1021,9 hPa 0,0 l/m N-NO 0,00 h 0 W/m 17,8 km/h (3 Bft)
25.11.2013 02:00 0,5 C 90 % 1022,6 hPa 0,0 l/m NO 0,00 h 0 W/m 14,5 km/h (3 Bft)
25.11.2013 03:00 -0,2 C 88 % 1022,9 hPa 0,0 l/m N-NO 0,00 h 0 W/m 13,8 km/h (3 Bft)
25.11.2013 04:00 -0,7 C 88 % 1023,9 hPa 0,0 l/m NO 0,00 h 0 W/m 14,5 km/h (3 Bft)
25.11.2013 05:00 -1,4 C 87 % 1024,9 hPa 0,0 l/m N-NO 0,00 h 0 W/m 12,3 km/h (3 Bft)
25.11.2013 06:00 -2,1 C 85 % 1025,7 hPa 0,0 l/m NO 0,00 h 0 W/m 11,1 km/h (2 Bft)
25.11.2013 07:00 -2,7 C 84 % 1026,3 hPa 0,0 l/m NO 0,00 h 6 W/m 2,3 km/h (1 Bft)
25.11.2013 08:00 -3,3 C 87 % 1027,3 hPa 0,0 l/m NO 0,00 h 17 W/m 3,3 km/h (1 Bft)
25.11.2013 09:00 -2,6 C 86 % 1027,8 hPa 0,0 l/m O-NO 0,33 h 99 W/m 6,1 km/h (2 Bft)
25.11.2013 10:00 -1,6 C 81 % 1028,1 hPa 0,0 l/m O 0,50 h 170 W/m 7,8 km/h (2 Bft)
25.11.2013 11:00 -0,3 C 73 % 1027,8 hPa 0,0 l/m NO 1,00 h 356 W/m 8,9 km/h (2 Bft)
25.11.2013 12:00 0,2 C 66 % 1027,5 hPa 0,0 l/m NO 1,00 h 370 W/m 8,8 km/h (2 Bft)
25.11.2013 13:00 0,6 C 68 % 1027,3 hPa 0,0 l/m N-NO 0,83 h 301 W/m 8,3 km/h (2 Bft)
25.11.2013 14:00 0,5 C 67 % 1027,0 hPa 0,0 l/m N-NW 0,25 h 91 W/m 5,7 km/h (1 Bft)
25.11.2013 15:00 0,1 C 69 % 1027,2 hPa 0,0 l/m N-NW 0,17 h 54 W/m 4,3 km/h (1 Bft)
25.11.2013 16:00 -0,6 C 74 % 1027,7 hPa 0,0 l/m N-NW 0,00 h 11 W/m 6,9 km/h (2 Bft)
25.11.2013 17:00 -1,7 C 81 % 1028,0 hPa 0,0 l/m N 0,00 h 0 W/m 1,6 km/h (1 Bft)
25.11.2013 18:00 -1,6 C 80 % 1028,2 hPa 0,0 l/m W-NW 0,00 h 0 W/m 7,0 km/h (2 Bft)
25.11.2013 19:00 -1,2 C 76 % 1028,5 hPa 0,0 l/m W-NW 0,00 h 0 W/m 6,1 km/h (2 Bft)
25.11.2013 20:00 -1,1 C 77 % 1028,6 hPa 0,0 l/m W-NW 0,00 h 0 W/m 3,3 km/h (1 Bft)
25.11.2013 21:00 -1,1 C 80 % 1028,7 hPa 0,0 l/m W-NW 0,00 h 0 W/m 2,8 km/h (1 Bft)
25.11.2013 22:00 -1,3 C 84 % 1028,6 hPa 0,0 l/m N 0,00 h 0 W/m 1,1 km/h (0 Bft)
25.11.2013 23:00 -1,5 C 86 % 1028,6 hPa 0,0 l/m N 0,00 h 0 W/m 0,5 km/h (0 Bft)
26.11.2013 00:00 -1,6 C 88 % 1028,6 hPa 0,0 l/m N 0,00 h 0 W/m 0,8 km/h (0 Bft)
26.11.2013 01:00 -1,7 C 90 % 1028,9 hPa 0,0 l/m W-NW 0,00 h 0 W/m 1,1 km/h (0 Bft)
26.11.2013 02:00 -1,8 C 92 % 1029,2 hPa 0,8 l/m N 0,00 h 0 W/m 0,4 km/h (0 Bft)
26.11.2013 03:00 -2,0 C 93 % 1029,3 hPa 0,2 l/m N 0,00 h 0 W/m 0,1 km/h (0 Bft)
26.11.2013 04:00 -2,0 C 94 % 1029,7 hPa 0,0 l/m N 0,00 h 0 W/m 0,0 km/h (0 Bft)
26.11.2013 05:00 -2,2 C 94 % 1030,0 hPa 0,0 l/m N 0,00 h 0 W/m 0,5 km/h (0 Bft)
26.11.2013 06:00 -2,8 C 93 % 1030,3 hPa 0,0 l/m N 0,00 h 0 W/m 2,0 km/h (1 Bft)
26.11.2013 07:00 -3,5 C 93 % 1030,7 hPa 0,0 l/m N 0,00 h 6 W/m 0,1 km/h (0 Bft)
26.11.2013 08:00 -3,6 C 94 % 1031,4 hPa 0,0 l/m N 0,08 h 25 W/m 1,9 km/h (1 Bft)
26.11.2013 09:00 -2,9 C 95 % 1031,7 hPa 0,0 l/m W-NW 0,33 h 96 W/m 5,3 km/h (1 Bft)
26.11.2013 10:00 -1,5 C 90 % 1032,1 hPa 0,0 l/m N-NO 0,42 h 205 W/m 12,2 km/h (2 Bft)
26.11.2013 11:00 -1,1 C 84 % 1032,0 hPa 0,0 l/m NO 0,17 h 173 W/m 12,8 km/h (3 Bft)
26.11.2013 12:00 -0,4 C 81 % 1031,7 hPa 0,0 l/m O-SO 0,67 h 265 W/m 9,0 km/h (2 Bft)
26.11.2013 13:00 -1,0 C 84 % 1031,7 hPa 0,0 l/m NO 0,08 h 96 W/m 12,1 km/h (2 Bft)
26.11.2013 14:00 -0,8 C 78 % 1031,6 hPa 0,0 l/m NO 0,00 h 76 W/m 7,6 km/h (2 Bft)
26.11.2013 15:00 -0,7 C 74 % 1031,5 hPa 0,0 l/m NO 0,08 h 42 W/m 8,4 km/h (2 Bft)
26.11.2013 16:00 -1,4 C 76 % 1031,5 hPa 0,0 l/m N-NO 0,08 h 13 W/m 3,6 km/h (1 Bft)
26.11.2013 17:00 -1,6 C 82 % 1031,8 hPa 0,0 l/m N-NO 0,00 h 0 W/m 7,6 km/h (2 Bft)
26.11.2013 18:00 -1,8 C 84 % 1032,0 hPa 0,0 l/m N-NO 0,00 h 0 W/m 5,1 km/h (1 Bft)
26.11.2013 19:00 -1,8 C 85 % 1032,3 hPa 0,0 l/m N-NO 0,00 h 0 W/m 3,7 km/h (1 Bft)
26.11.2013 20:00 -2,4 C 86 % 1032,2 hPa 0,0 l/m N 0,00 h 0 W/m 2,1 km/h (1 Bft)
26.11.2013 21:00 -3,0 C 87 % 1032,1 hPa 0,0 l/m N 0,00 h 0 W/m 0,9 km/h (0 Bft)
26.11.2013 22:00 -3,8 C 88 % 1032,0 hPa 0,0 l/m N-NO 0,00 h 0 W/m 1,5 km/h (1 Bft)
26.11.2013 23:00 -3,9 C 90 % 1032,2 hPa 0,0 l/m N-NO 0,00 h 0 W/m 5,6 km/h (1 Bft)
27.11.2013 00:00 -4,4 C 90 % 1032,2 hPa 0,0 l/m N 0,00 h 0 W/m 1,3 km/h (1 Bft)
27.11.2013 01:00 -5,3 C 90 % 1031,9 hPa 0,0 l/m N 0,00 h 0 W/m 0,7 km/h (0 Bft)
27.11.2013 02:00 -5,8 C 91 % 1032,3 hPa 0,0 l/m N 0,00 h 0 W/m 0,7 km/h (0 Bft)
27.11.2013 03:00 -6,1 C 92 % 1032,6 hPa 0,0 l/m N-NO 0,00 h 0 W/m 0,9 km/h (0 Bft)
27.11.2013 04:00 -6,4 C 92 % 1032,3 hPa 0,0 l/m N 0,00 h 0 W/m 1,1 km/h (0 Bft)
27.11.2013 05:00 -6,7 C 92 % 1032,3 hPa 0,0 l/m N 0,00 h 0 W/m 0,9 km/h (0 Bft)
27.11.2013 06:00 -6,8 C 93 % 1032,4 hPa 0,0 l/m N 0,00 h 0 W/m 2,9 km/h (1 Bft)
27.11.2013 07:00 -7,0 C 93 % 1032,5 hPa 0,0 l/m N 0,00 h 6 W/m 1,2 km/h (1 Bft)
27.11.2013 08:00 -7,0 C 94 % 1033,0 hPa 0,0 l/m N-NO 0,00 h 26 W/m 2,4 km/h (1 Bft)
27.11.2013 09:00 -5,9 C 95 % 1033,2 hPa 0,0 l/m N-NO 0,25 h 82 W/m 5,1 km/h (1 Bft)
27.11.2013 10:00 -4,8 C 93 % 1033,6 hPa 0,0 l/m NO 1,00 h 257 W/m 9,1 km/h (2 Bft)
27.11.2013 11:00 -3,3 C 87 % 1033,5 hPa 0,0 l/m O-NO 1,00 h 323 W/m 6,5 km/h (2 Bft)
27.11.2013 12:00 -1,9 C 81 % 1032,9 hPa 0,0 l/m O 1,00 h 346 W/m 12,2 km/h (2 Bft)
27.11.2013 13:00 -1,1 C 77 % 1032,6 hPa 0,0 l/m NO 1,00 h 317 W/m 11,3 km/h (2 Bft)
27.11.2013 14:00 -0,9 C 75 % 1032,6 hPa 0,0 l/m O 0,92 h 200 W/m 13,3 km/h (3 Bft)
27.11.2013 15:00 -1,3 C 76 % 1032,5 hPa 0,0 l/m O-NO 0,75 h 88 W/m 11,8 km/h (2 Bft)
27.11.2013 16:00 -2,2 C 79 % 1032,5 hPa 0,0 l/m O-NO 0,08 h 11 W/m 8,6 km/h (2 Bft)
27.11.2013 17:00 -3,3 C 84 % 1032,6 hPa 0,0 l/m O-NO 0,00 h 0 W/m 2,5 km/h (1 Bft)
27.11.2013 18:00 -4,2 C 88 % 1032,9 hPa 0,0 l/m O-NO 0,00 h 0 W/m 3,2 km/h (1 Bft)
27.11.2013 19:00 -5,0 C 90 % 1033,3 hPa 0,0 l/m O-NO 0,00 h 0 W/m 3,2 km/h (1 Bft)
27.11.2013 20:00 -5,5 C 92 % 1033,4 hPa 0,0 l/m N 0,00 h 0 W/m 1,9 km/h (1 Bft)
27.11.2013 21:00 -5,9 C 93 % 1033,9 hPa 0,0 l/m O-NO 0,00 h 0 W/m 3,9 km/h (1 Bft)
27.11.2013 22:00 -6,5 C 93 % 1033,9 hPa 0,0 l/m N 0,00 h 0 W/m 1,3 km/h (1 Bft)
27.11.2013 23:00 -6,7 C 94 % 1033,8 hPa 0,0 l/m O-NO 0,00 h 0 W/m 4,5 km/h (1 Bft)
28.11.2013 00:00 -6,3 C 94 % 1033,8 hPa 0,0 l/m N 0,00 h 0 W/m 1,2 km/h (1 Bft)
28.11.2013 01:00 -5,7 C 95 % 1033,8 hPa 0,0 l/m O-NO 0,00 h 0 W/m 2,4 km/h (1 Bft)
28.11.2013 02:00 -5,2 C 95 % 1033,7 hPa 0,0 l/m N 0,00 h 0 W/m 1,3 km/h (1 Bft)
28.11.2013 03:00 -4,8 C 95 % 1033,9 hPa 0,0 l/m O-NO 0,00 h 0 W/m 1,7 km/h (1 Bft)
28.11.2013 04:00 -4,7 C 95 % 1033,6 hPa 0,0 l/m N 0,00 h 0 W/m 0,0 km/h (0 Bft)
28.11.2013 05:00 -4,7 C 95 % 1033,5 hPa 0,0 l/m O-NO 0,00 h 0 W/m 0,9 km/h (0 Bft)
28.11.2013 06:00 -4,8 C 94 % 1033,2 hPa 0,0 l/m O-NO 0,00 h 0 W/m 3,1 km/h (1 Bft)
28.11.2013 07:00 -4,9 C 95 % 1033,5 hPa 0,0 l/m N 0,00 h 8 W/m 0,4 km/h (0 Bft)
28.11.2013 08:00 -4,5 C 95 % 1033,3 hPa 0,0 l/m N 0,00 h 16 W/m 1,2 km/h (1 Bft)
28.11.2013 09:00 -4,1 C 95 % 1033,3 hPa 0,0 l/m O 0,00 h 39 W/m 2,0 km/h (1 Bft)
28.11.2013 10:00 -3,6 C 94 % 1033,7 hPa 0,0 l/m O-SO 0,00 h 68 W/m 3,5 km/h (1 Bft)
28.11.2013 11:00 -2,8 C 92 % 1033,4 hPa 0,0 l/m SO 0,00 h 80 W/m 5,1 km/h (1 Bft)
28.11.2013 12:00 -2,1 C 90 % 1032,7 hPa 0,0 l/m S 0,00 h 75 W/m 5,5 km/h (1 Bft)
28.11.2013 13:00 -1,6 C 89 % 1032,3 hPa 0,0 l/m N 0,00 h 53 W/m 0,8 km/h (0 Bft)
28.11.2013 14:00 -1,2 C 88 % 1032,0 hPa 0,0 l/m S-SW 0,00 h 35 W/m 1,1 km/h (0 Bft)
28.11.2013 15:00 -1,1 C 88 % 1031,8 hPa 0,0 l/m S-SW 0,00 h 18 W/m 4,3 km/h (1 Bft)
28.11.2013 16:00 -1,2 C 87 % 1031,7 hPa 0,0 l/m S-SW 0,00 h 6 W/m 3,6 km/h (1 Bft)
28.11.2013 17:00 -1,3 C 87 % 1031,8 hPa 0,0 l/m N 0,00 h 0 W/m 1,6 km/h (1 Bft)
28.11.2013 18:00 -1,3 C 87 % 1031,9 hPa 0,0 l/m N 0,00 h 0 W/m 1,1 km/h (0 Bft)
28.11.2013 19:00 -1,3 C 88 % 1032,1 hPa 0,0 l/m N 0,00 h 0 W/m 2,0 km/h (1 Bft)
28.11.2013 20:00 -1,6 C 90 % 1032,3 hPa 0,0 l/m S-SW 0,00 h 0 W/m 2,4 km/h (1 Bft)
28.11.2013 21:00 -1,6 C 92 % 1032,3 hPa 0,0 l/m N 0,00 h 0 W/m 0,7 km/h (0 Bft)
28.11.2013 22:00 -1,6 C 92 % 1032,1 hPa 0,0 l/m N 0,00 h 0 W/m 1,7 km/h (1 Bft)
28.11.2013 23:00 -1,6 C 93 % 1032,2 hPa 0,0 l/m N 0,00 h 0 W/m 0,5 km/h (0 Bft)
29.11.2013 00:00 -1,7 C 93 % 1031,8 hPa 0,0 l/m N 0,00 h 0 W/m 0,5 km/h (0 Bft)
29.11.2013 01:00 -1,8 C 93 % 1031,5 hPa 0,0 l/m N 0,00 h 0 W/m 0,0 km/h (0 Bft)
29.11.2013 02:00 -1,7 C 94 % 1031,5 hPa 0,0 l/m N 0,00 h 0 W/m 0,0 km/h (0 Bft)
29.11.2013 03:00 -1,7 C 94 % 1031,0 hPa 0,0 l/m N 0,00 h 0 W/m 1,1 km/h (0 Bft)
29.11.2013 04:00 -1,9 C 95 % 1030,8 hPa 0,0 l/m N 0,00 h 0 W/m 0,0 km/h (0 Bft)
29.11.2013 05:00 -1,8 C 95 % 1030,5 hPa 0,0 l/m N 0,00 h 0 W/m 0,0 km/h (0 Bft)
29.11.2013 06:00 -1,7 C 95 % 1030,1 hPa 0,0 l/m N 0,00 h 0 W/m 0,0 km/h (0 Bft)
29.11.2013 07:00 -1,7 C 95 % 1030,0 hPa 0,0 l/m N 0,00 h 0 W/m 0,7 km/h (0 Bft)
29.11.2013 08:00 -1,6 C 95 % 1029,8 hPa 0,0 l/m S-SW 0,00 h 12 W/m 1,2 km/h (1 Bft)
29.11.2013 09:00 -1,0 C 95 % 1029,3 hPa 0,0 l/m S-SW 0,00 h 48 W/m 4,1 km/h (1 Bft)
29.11.2013 10:00 0,0 C 95 % 1028,7 hPa 0,2 l/m S-SW 0,00 h 98 W/m 5,1 km/h (1 Bft)
29.11.2013 11:00 0,7 C 93 % 1027,4 hPa 0,4 l/m S-SW 0,00 h 144 W/m 4,8 km/h (1 Bft)
29.11.2013 12:00 1,6 C 92 % 1025,8 hPa 0,0 l/m S-SW 0,17 h 145 W/m 6,4 km/h (2 Bft)
29.11.2013 13:00 2,3 C 86 % 1025,0 hPa 0,0 l/m W 0,00 h 85 W/m 9,7 km/h (2 Bft)
29.11.2013 14:00 2,2 C 82 % 1024,3 hPa 0,0 l/m W 0,00 h 37 W/m 10,2 km/h (2 Bft)
29.11.2013 15:00 1,8 C 85 % 1023,5 hPa 0,0 l/m SW 0,00 h 16 W/m 11,7 km/h (2 Bft)
29.11.2013 16:00 1,5 C 85 % 1023,1 hPa 0,0 l/m SW 0,00 h 5 W/m 12,4 km/h (3 Bft)
29.11.2013 17:00 1,3 C 87 % 1022,3 hPa 0,0 l/m SW 0,00 h 0 W/m 14,6 km/h (3 Bft)
29.11.2013 18:00 1,3 C 87 % 1021,8 hPa 0,0 l/m SW 0,00 h 0 W/m 20,1 km/h (4 Bft)
29.11.2013 19:00 1,3 C 87 % 1021,3 hPa 0,0 l/m SW 0,00 h 0 W/m 20,6 km/h (4 Bft)
29.11.2013 20:00 1,1 C 89 % 1020,3 hPa 0,0 l/m SW 0,00 h 0 W/m 21,3 km/h (4 Bft)
29.11.2013 21:00 0,6 C 93 % 1019,1 hPa 0,0 l/m SW 0,00 h 0 W/m 24,4 km/h (4 Bft)
29.11.2013 22:00 0,9 C 93 % 1017,9 hPa 0,0 l/m W-SW 0,00 h 0 W/m 32,3 km/h (5 Bft)
29.11.2013 23:00 1,1 C 92 % 1017,0 hPa 0,0 l/m W-SW 0,00 h 0 W/m 34,1 km/h (5 Bft)
30.11.2013 00:00 0,9 C 94 % 1016,1 hPa 0,2 l/m W-SW 0,00 h 0 W/m 30,2 km/h (5 Bft)
30.11.2013 01:00 0,8 C 95 % 1015,3 hPa 0,2 l/m W-SW 0,00 h 0 W/m 26,8 km/h (4 Bft)
30.11.2013 02:00 0,8 C 95 % 1015,1 hPa 0,2 l/m W-SW 0,00 h 0 W/m 15,6 km/h (3 Bft)
30.11.2013 03:00 0,8 C 96 % 1015,1 hPa 0,2 l/m NW 0,00 h 0 W/m 9,7 km/h (2 Bft)
30.11.2013 04:00 0,7 C 96 % 1015,4 hPa 0,2 l/m N 0,00 h 0 W/m 2,3 km/h (1 Bft)
30.11.2013 05:00 0,5 C 96 % 1015,9 hPa 0,2 l/m NW 0,00 h 0 W/m 1,5 km/h (1 Bft)
30.11.2013 06:00 0,3 C 96 % 1016,2 hPa 0,0 l/m NW 0,00 h 0 W/m 2,0 km/h (1 Bft)
30.11.2013 07:00 -0,0 C 96 % 1016,8 hPa 0,0 l/m NW 0,00 h 0 W/m 1,9 km/h (1 Bft)
30.11.2013 08:00 -0,4 C 96 % 1017,8 hPa 0,0 l/m N 0,00 h 16 W/m 0,4 km/h (0 Bft)
30.11.2013 09:00 -0,0 C 97 % 1018,7 hPa 0,0 l/m NW 0,00 h 30 W/m 1,1 km/h (0 Bft)
30.11.2013 10:00 0,5 C 97 % 1019,3 hPa 0,0 l/m N 0,50 h 165 W/m 0,9 km/h (0 Bft)
30.11.2013 11:00 1,5 C 96 % 1019,5 hPa 0,0 l/m N 0,67 h 266 W/m 1,3 km/h (1 Bft)
30.11.2013 12:00 2,9 C 87 % 1019,5 hPa 0,0 l/m NW 1,00 h 354 W/m 4,3 km/h (1 Bft)
30.11.2013 13:00 3,4 C 83 % 1019,5 hPa 0,0 l/m NW 0,83 h 304 W/m 4,0 km/h (1 Bft)
30.11.2013 14:00 3,1 C 82 % 1019,7 hPa 0,0 l/m NW 0,08 h 61 W/m 4,1 km/h (1 Bft)
30.11.2013 15:00 2,2 C 88 % 1020,5 hPa 0,0 l/m NW 0,00 h 33 W/m 0,9 km/h (0 Bft)
30.11.2013 16:00 1,8 C 91 % 1021,7 hPa 0,0 l/m N 0,00 h 6 W/m 0,3 km/h (0 Bft)
30.11.2013 17:00 1,3 C 93 % 1022,7 hPa 0,0 l/m N 0,00 h 0 W/m 0,4 km/h (0 Bft)
30.11.2013 18:00 1,3 C 93 % 1023,6 hPa 0,0 l/m N 0,00 h 0 W/m 0,8 km/h (0 Bft)
30.11.2013 19:00 1,3 C 92 % 1024,3 hPa 0,0 l/m N 0,00 h 0 W/m 0,0 km/h (0 Bft)
30.11.2013 20:00 1,1 C 92 % 1024,7 hPa 0,0 l/m N 0,00 h 0 W/m 1,3 km/h (1 Bft)
30.11.2013 21:00 0,8 C 92 % 1025,0 hPa 0,0 l/m N 0,00 h 0 W/m 0,4 km/h (0 Bft)
30.11.2013 22:00 0,3 C 92 % 1025,1 hPa 0,0 l/m N 0,00 h 0 W/m 0,5 km/h (0 Bft)
30.11.2013 23:00 -0,1 C 93 % 1025,5 hPa 0,0 l/m N 0,00 h 0 W/m 0,3 km/h (0 Bft)
01.12.2013 00:00 -0,1 C 94 % 1025,7 hPa 0,0 l/m N 0,00 h 0 W/m 0,5 km/h (0 Bft)
01.12.2013 01:00 -0,2 C 95 % 1025,8 hPa 0,0 l/m N 0,00 h 0 W/m 0,8 km/h (0 Bft)
01.12.2013 02:00 -1,0 C 93 % 1026,1 hPa 0,0 l/m N 0,00 h 0 W/m 0,1 km/h (0 Bft)
01.12.2013 03:00 -1,3 C 94 % 1026,2 hPa 0,0 l/m N 0,00 h 0 W/m 0,0 km/h (0 Bft)
01.12.2013 04:00 -1,0 C 95 % 1026,4 hPa 0,0 l/m NW 0,00 h 0 W/m 2,9 km/h (1 Bft)
01.12.2013 05:00 -0,5 C 95 % 1026,2 hPa 0,0 l/m N 0,00 h 0 W/m 0,3 km/h (0 Bft)
01.12.2013 06:00 -0,9 C 95 % 1026,7 hPa 0,0 l/m NW 0,00 h 0 W/m 0,5 km/h (0 Bft)
01.12.2013 07:00 -1,1 C 95 % 1027,3 hPa 0,0 l/m NW 0,00 h 5 W/m 4,0 km/h (1 Bft)
01.12.2013 08:00 -0,3 C 97 % 1027,7 hPa 0,0 l/m NW 0,00 h 19 W/m 3,6 km/h (1 Bft)
01.12.2013 09:00 0,4 C 97 % 1028,0 hPa 0,0 l/m N-NO 0,00 h 62 W/m 6,7 km/h (2 Bft)
01.12.2013 10:00 1,2 C 96 % 1028,2 hPa 0,0 l/m NO 0,75 h 200 W/m 8,4 km/h (2 Bft)
01.12.2013 11:00 2,5 C 86 % 1028,1 hPa 0,0 l/m NO 1,00 h 317 W/m 11,6 km/h (2 Bft)
01.12.2013 12:00 3,4 C 78 % 1027,5 hPa 0,0 l/m NO 0,67 h 282 W/m 15,8 km/h (3 Bft)
01.12.2013 13:00 3,3 C 80 % 1027,2 hPa 0,0 l/m NO 0,00 h 100 W/m 15,0 km/h (3 Bft)
01.12.2013 14:00 2,8 C 85 % 1027,1 hPa 0,0 l/m NO 0,00 h 35 W/m 12,0 km/h (2 Bft)
01.12.2013 15:00 2,4 C 86 % 1027,2 hPa 0,0 l/m NO 0,00 h 20 W/m 11,7 km/h (2 Bft)
01.12.2013 16:00 2,2 C 86 % 1027,3 hPa 0,0 l/m NO 0,00 h 7 W/m 7,1 km/h (2 Bft)
01.12.2013 17:00 1,5 C 87 % 1027,7 hPa 0,0 l/m NO 0,00 h 0 W/m 4,4 km/h (1 Bft)
01.12.2013 18:00 1,5 C 88 % 1028,1 hPa 0,0 l/m NO 0,00 h 0 W/m 6,9 km/h (2 Bft)
01.12.2013 19:00 1,4 C 86 % 1028,2 hPa 0,0 l/m NO 0,00 h 0 W/m 13,2 km/h (3 Bft)
01.12.2013 20:00 1,4 C 86 % 1028,7 hPa 0,0 l/m NO 0,00 h 0 W/m 14,2 km/h (3 Bft)
01.12.2013 21:00 1,4 C 85 % 1028,7 hPa 0,0 l/m NO 0,00 h 0 W/m 12,9 km/h (3 Bft)
01.12.2013 22:00 1,3 C 86 % 1029,0 hPa 0,0 l/m NO 0,00 h 0 W/m 15,8 km/h (3 Bft)
01.12.2013 23:00 1,3 C 86 % 1029,0 hPa 0,0 l/m O-NO 0,00 h 0 W/m 15,4 km/h (3 Bft)
Min-Datum _ 27.11.13 25.11.13 30.11.13 - - - - 25.11.13
_ Min-Zeit 08:15 12:20 02:20 - - - - 07:10
Minimum _ -7,2 C 65 % 1014,9 hPa - - - - 0,0 km/h (0 Bft)
Max-Datum _ 01.12.13 27.11.13 27.11.13 26.11.13 - 25.11.13 26.11.13 29.11.13
_ Max-Zeit 12:50 08:40 22:20 02:05 - 09:40 12:35 23:20
Maximum _ 4,2 C 100 % 1034,1 hPa 0,8 l/m - 0,08 h 476 W/m 41,8 km/h
SW (6 Bft)
Durchschnitt _ -1,2 C 89 % 1028,1 hPa #2,8 l/m NO #17:40 h 109 W/m 5,8 km/h (2 Bft)